Wind_Speed
36 36 38 40 41 40 37 34 33 33 36 39 41 41 41 40 40 42 40 39 34 12 25 14 11 13 10 15 5 11 7 3 3 2 2 3 3 4 3 6 6 7 7 4 3 2 8 9 9 6 2 3 1 10
37 39 40 41 41 34 30 28 25 27 25 33 38 40 41 41 42 42 36 37 32 23 12 12 28 24 21 13 6 22 10 10 12 3 1 3 3 3 7 5 2 5 6 6 9 6 4 23 5 17 1 2 3 7
39 40 41 38 33 29 27 23 22 21 20 25 34 38 38 41 42 43 40 30 33 21 26 32 32 21 17 21 12 8 16 11 16 8 8 3 3 4 5 5 4 3 6 2 1 4 17 17 25 14 16 3 4 4
40 41 37 33 31 28 23 22 21 21 20 23 30 34 36 39 41 43 38 35 33 9 6 16 15 22 27 24 19 16 14 11 10 8 3 3 3 8 4 3 2 3 13 6 5 11 14 19 22 28 21 16 9 8
42 38 35 32 29 26 23 22 22 23 20 22 27 31 36 40 41 41 38 39 37 23 5 11 18 26 19 16 20 17 17 16 10 7 3 3 6 5 2 2 3 10 7 6 7 14 6 6 4 24 31 26 16 15
41 36 33 27 24 24 25 24 24 22 25 24 28 30 33 39 41 42 14 35 36 34 6 4 9 10 13 15 18 22 21 17 24 13 4 4 5 4 4 4 5 25 21 24 13 11 13 4 3 7 25 28 23 20
36 34 31 26 23 23 25 25 25 24 26 27 28 30 33 39 44 31 9 13 38 26 5 4 6 4 9 14 18 21 22 20 17 14 7 6 4 8 2 6 8 17 17 22 25 15 13 17 8 7 13 27 25 22
36 36 33 31 26 24 25 26 27 27 30 29 28 31 32 40 39 29 9 13 40 24 6 3 4 5 11 7 8 15 13 18 13 9 7 7 6 3 4 10 18 21 20 24 28 26 26 17 14 10 12 25 29 28
36 35 36 35 33 28 28 29 31 33 30 31 30 31 28 43 20 21 20 36 37 12 7 4 2 2 9 4 8 5 7 1 3 3 5 7 5 7 9 16 19 16 21 24 21 25 27 25 20 18 17 23 34 32
34 36 38 37 37 36 35 33 34 36 34 36 38 21 8 25 33 38 30 16 12 8 7 4 8 3 6 4 5 7 5 4 3 4 10 4 6 29 30 17 13 13 15 15 16 16 21 27 28 25 24 21 26 32
36 39 41 40 39 40 41 41 45 45 41 42 23 10 28 51 42 9 8 7 8 6 8 11 20 4 1 2 3 4 3 3 3 4 5 4 5 24 37 41 39 34 32 33 26 17 19 18 21 30 27 22 21 25
33 36 39 43 45 43 44 44 51 58 50 40 30 42 34 15 6 6 5 5 6 8 13 11 15 16 3 3 3 6 3 1 6 8 4 4 5 25 27 38 40 43 47 46 44 37 26 18 16 24 30 26 23 21
34 37 39 41 44 44 48 51 60 63 54 48 27 13 8 8 6 13 13 8 8 11 17 22 11 17 8 5 4 2 6 7 11 3 5 5 9 23 28 28 29 34 34 41 47 44 34 28 22 19 25 31 26 25
26 27 29 31 42 57 60 59 69 69 66 16 10 9 7 6 7 7 15 9 11 16 26 29 13 6 10 3 2 5 2 4 5 4 7 4 19 22 28 31 30 33 34 32 33 35 39 39 31 24 20 23 29 29
20 23 27 38 55 62 71 78 74 72 37 11 10 6 8 5 5 15 23 24 24 25 30 20 8 6 3 3 4 3 4 7 8 5 4 16 21 25 23 30 31 28 25 23 22 24 28 32 30 26 22 20 25 28
21 26 38 58 67 78 84 76 71 54 18 10 4 6 8 7 4 17 28 27 34 33 32 10 4 4 4 4 6 10 6 5 4 5 17 22 21 18 21 26 22 20 21 19 19 19 20 27 27 25 27 21 19 26
46 45 71 74 80 81 74 58 49 17 11 8 3 5 14 10 9 11 28 34 37 35 9 4 9 10 5 5 5 5 5 4 11 17 19 23 26 17 20 23 21 19 18 16 16 19 22 24 22 20 23 24 21 22
63 67 69 73 64 49 45 40 15 7 3 3 3 4 20 11 24 22 23 38 33 35 22 8 10 6 7 8 3 3 18 19 11 9 12 17 18 21 25 23 20 18 17 17 17 23 25 24 21 19 19 21 21 23
59 59 62 52 50 43 14 12 4 4 2 5 11 9 18 14 24 30 31 42 37 50 23 8 5 6 4 5 8 23 25 25 18 11 13 17 21 29 25 21 18 17 17 18 21 27 25 19 19 20 19 18 18 20
57 49 41 36 38 13 6 5 5 5 3 6 14 16 12 12 25 32 35 41 35 32 4 3 4 5 18 19 30 29 35 30 23 24 21 22 24 27 24 21 19 20 19 19 22 26 26 26 23 19 16 14 15 18
42 36 33 27 16 8 6 6 5 2 5 7 12 14 7 20 20 28 22 30 13 9 4 10 10 7 11 13 17 23 26 28 32 29 37 32 28 25 24 23 21 19 19 21 27 29 26 24 21 19 17 15 14 14
34 33 25 17 5 5 4 3 3 3 3 3 4 5 7 4 6 7 17 6 8 6 4 5 9 5 7 12 13 18 24 28 31 26 32 34 34 29 26 24 22 21 20 20 22 26 27 24 20 19 18 17 17 16
34 20 10 7 5 4 1 3 2 5 5 4 4 3 3 3 6 12 4 3 2 8 9 8 7 9 9 10 12 19 25 28 25 28 29 28 26 23 22 21 19 19 21 21 20 21 22 21 20 18 18 18 18 19
23 7 3 3 1 2 3 2 5 3 4 3 3 4 3 3 7 3 3 2 3 13 11 9 8 10 14 17 22 25 28 25 27 27 26 27 26 22 19 18 17 15 15 18 20 21 20 19 18 18 18 17 17 18
7 2 4 2 3 2 3 1 2 3 3 2 3 3 2 5 3 2 2 4 14 17 18 20 21 24 27 26 23 23 23 25 28 29 25 21 23 23 19 17 16 16 17 18 19 20 20 19 18 17 16 17 17 17
4 1 2 2 2 2 2 2 1 2 3 2 2 3 5 3 3 5 3 16 17 22 21 23 27 25 24 23 26 25 25 22 21 23 23 19 14 13 16 16 16 16 16 16 16 17 17 17 16 17 16 15 14 16
3 0 2 3 3 3 1 3 3 1 2 3 3 2 3 3 3 2 5 8 14 21 18 16 16 22 26 25 24 23 22 21 17 18 18 17 15 14 10 9 11 12 13 14 14 15 14 13 14 13 13 12 11 13
2 3 3 1 0 3 1 3 3 2 1 1 3 4 4 3 2 6 6 7 9 16 20 17 18 21 24 22 20 19 19 18 17 17 17 16 14 14 14 13 13 13 12 12 12 12 12 12 12 12 12 12 12 13
2 1 4 3 3 4 4 3 2 4 2 1 3 3 3 7 9 7 9 10 12 15 21 20 21 19 20 20 19 17 15 14 16 18 16 16 15 13 12 12 11 10 9 8 8 10 12 12 13 14 14 15 15 15
2 3 4 3 4 4 5 6 3 4 9 13 19 29 25 24 30 25 23 21 20 20 20 20 19 14 15 14 18 19 17 14 11 10 12 13 12 11 11 10 9 8 8 8 9 10 11 12 13 14 16 17 18 18
2 3 5 6 4 9 10 14 21 27 28 31 29 30 28 24 41 40 37 32 29 27 26 24 22 19 17 16 14 14 14 11 9 9 10 10 9 7 6 6 6 6 7 8 9 10 12 14 16 18 19 19 20 20
8 8 2 4 4 12 16 16 20 20 14 17 16 20 25 17 11 21 31 27 27 29 28 26 25 24 22 20 19 17 16 15 14 12 12 11 10 8 5 3 2 2 3 5 7 10 13 15 17 19 20 22 23 24
7 10 9 6 4 4 9 6 8 7 13 8 12 11 11 7 8 8 17 24 24 20 18 20 19 18 17 15 14 12 10 8 6 4 3 2 2 3 5 6 8 9 10 11 13 14 16 17 19 20 21 22 22 22
Wind_Direction
274 277 277 279 279 276 269 263 255 245 236 229 225 221 216 213 211 209 215 219 213 229 253 260 270 277 326 175 158 160 135 208 83 184 128 164 125 187 113 149 174 165 149 173 120 208 268 157 128 195 251 310 336 177
276 278 280 281 278 271 264 260 250 237 229 218 217 216 211 209 207 207 210 218 211 222 258 268 257 260 262 257 277 168 193 158 185 106 157 126 129 161 158 193 178 197 184 174 192 213 231 187 197 207 332 222 170 180
279 281 283 277 271 264 261 246 233 229 224 219 210 209 206 205 204 204 204 209 204 230 258 266 264 263 261 261 259 188 188 180 196 209 159 146 141 145 165 209 158 225 173 197 160 223 233 229 226 231 227 226 193 191
281 282 275 269 266 256 246 227 222 216 212 212 204 202 201 200 199 198 200 201 200 198 235 275 276 269 258 251 250 204 185 200 202 190 162 144 146 200 181 130 167 168 155 175 261 275 263 263 242 233 219 215 200 191
280 277 268 264 252 241 229 218 211 206 208 200 196 195 195 195 194 195 201 208 203 186 203 264 280 268 256 245 233 211 212 227 224 187 194 169 129 135 74 104 207 190 172 180 216 221 214 248 288 228 216 215 204 191
275 266 257 249 243 232 222 214 208 203 199 198 194 192 191 189 187 181 170 208 202 203 271 316 309 279 214 223 222 223 216 196 214 235 168 162 165 184 159 193 231 207 212 232 238 241 216 232 273 245 218 209 204 195
266 253 240 236 231 227 220 216 209 206 192 189 190 188 189 186 185 177 167 192 195 196 207 281 275 264 200 187 200 214 217 216 225 223 192 150 167 184 148 234 211 217 238 248 248 238 239 238 247 248 215 202 199 195
255 242 233 230 228 226 221 216 210 200 188 181 183 182 184 186 180 182 136 155 180 175 174 234 268 278 176 159 150 185 186 198 215 216 196 177 160 172 239 241 232 242 249 249 247 245 249 253 239 228 205 198 198 199
243 235 230 231 230 230 221 213 204 193 183 178 176 176 178 178 168 148 148 165 173 173 185 204 251 240 180 167 124 140 157 107 235 198 212 184 185 216 225 210 230 235 238 251 256 250 243 237 234 227 213 202 205 204
237 237 234 236 233 225 217 214 207 195 191 179 168 171 183 165 154 139 150 163 170 212 213 228 217 252 199 154 110 160 135 173 180 218 163 208 231 231 235 224 215 228 237 249 241 238 232 231 225 222 220 215 214 211
240 242 242 237 227 225 226 226 210 199 191 169 171 165 144 144 142 148 153 155 162 193 212 214 207 187 287 123 129 145 175 155 195 193 192 221 235 232 234 238 236 239 249 262 264 269 255 259 240 218 217 216 215 213
240 237 236 237 236 226 213 204 193 185 174 168 157 137 137 141 142 141 159 159 180 194 182 186 193 186 221 223 120 166 145 136 227 141 161 242 222 231 222 230 237 240 242 246 251 248 247 245 239 228 219 214 209 203
252 245 239 231 221 211 198 188 182 174 163 145 137 167 174 168 159 169 180 193 184 176 166 167 156 163 178 220 110 169 168 208 126 181 226 232 217 208 220 230 239 241 237 241 244 244 236 235 229 221 220 219 215 213
250 244 225 217 200 193 191 177 171 161 148 148 145 164 189 186 203 204 196 163 150 154 157 162 141 133 167 168 174 190 158 148 219 220 226 229 224 223 225 227 233 234 233 239 242 242 235 229 228 221 219 215 214 214
236 240 219 199 177 171 168 166 163 153 156 142 134 193 205 180 137 157 169 171 169 157 154 153 105 116 118 185 192 151 175 230 205 224 221 221 229 234 237 226 227 223 221 224 228 229 225 216 213 217 210 206 207 210
140 152 154 154 163 158 155 150 150 156 154 162 133 117 151 129 146 158 165 169 171 165 158 165 140 170 175 174 174 213 190 217 224 213 229 215 238 239 235 217 214 206 213 218 218 214 202 197 203 206 205 205 206 205
123 123 141 143 148 145 143 144 150 163 162 154 137 168 167 173 165 158 171 173 166 155 173 152 173 194 123 178 216 192 192 222 237 224 221 216 226 232 195 186 184 185 187 189 191 182 179 184 188 193 199 200 198 199
126 132 132 135 135 135 138 146 147 145 109 118 127 199 201 191 184 176 176 174 170 173 179 198 157 188 186 191 210 224 227 240 254 256 239 232 208 188 177 175 173 175 179 181 175 172 176 179 184 184 184 189 194 196
134 131 132 132 133 130 131 157 114 90 115 170 189 268 212 221 207 191 175 180 181 170 184 184 188 187 195 195 191 204 205 217 223 212 193 183 181 173 170 173 177 179 180 178 178 180 177 175 174 171 174 181 191 194
138 137 136 140 148 127 88 73 131 67 56 236 217 221 207 188 174 169 171 173 171 176 180 257 233 214 188 207 200 198 200 205 196 168 162 160 164 172 175 176 174 171 165 165 170 172 173 171 170 170 174 182 190 192
139 139 141 147 141 69 78 116 143 86 248 207 157 149 155 148 136 144 143 158 157 165 216 221 243 240 215 213 220 217 211 203 190 183 167 158 163 169 171 171 170 166 168 168 173 173 173 175 175 177 181 182 181 184
140 129 124 125 73 57 87 118 181 170 317 122 89 93 93 103 104 126 137 151 169 186 205 272 259 304 247 235 231 204 198 192 186 176 164 160 161 170 173 173 170 168 167 170 171 176 180 185 184 184 185 186 185 188
146 144 129 60 39 30 136 182 180 202 194 153 113 84 76 100 126 121 81 140 219 168 191 230 249 261 245 214 186 173 175 174 165 163 165 165 163 162 163 159 160 164 163 164 164 169 173 176 178 184 188 190 196 198
131 101 73 36 10 301 310 227 219 204 99 76 91 106 101 121 130 65 92 189 164 159 173 182 196 165 154 151 150 153 157 164 156 154 159 159 156 153 158 159 158 162 172 169 167 170 172 177 183 188 193 201 205 208
99 28 58 295 254 8 253 257 35 50 88 86 84 100 118 150 88 91 123 175 179 182 169 167 171 164 149 141 139 137 141 154 153 149 150 160 157 156 159 162 164 169 169 175 177 179 180 183 187 193 200 207 215 220
79 140 187 252 234 206 268 53 19 118 106 86 87 139 169 123 109 145 173 169 175 167 173 173 167 155 144 140 134 132 134 141 149 148 147 154 161 168 168 169 170 172 174 175 186 188 190 192 195 200 208 219 225 227
127 197 283 251 259 220 156 133 130 80 89 121 162 124 83 85 81 29 82 118 147 164 167 162 161 150 139 134 127 124 127 129 135 138 141 145 146 141 140 154 161 164 175 183 190 198 203 204 207 211 216 222 228 231
109 142 189 282 238 342 29 25 53 72 123 221 107 62 88 56 44 11 45 107 135 167 162 146 147 146 139 137 137 138 136 135 136 139 141 141 143 147 156 161 163 167 169 175 184 198 208 212 217 224 230 233 235 238
11 164 143 51 45 46 51 19 344 23 11 109 91 79 91 63 36 58 71 100 124 150 160 147 142 143 141 140 136 133 131 135 144 141 143 140 143 151 164 168 168 168 174 183 195 209 215 217 219 224 229 234 237 239
291 4 103 75 39 34 28 18 37 74 95 102 110 105 92 75 68 85 91 98 113 127 133 134 130 135 130 141 139 140 140 139 138 138 137 139 143 148 157 164 176 191 208 222 229 230 229 230 233 235 237 241 245 249
21 49 68 61 62 16 21 71 92 100 97 99 103 104 104 96 70 66 72 78 91 107 115 110 111 114 119 122 126 137 131 126 121 120 119 123 126 132 145 162 183 206 225 237 245 249 248 246 246 248 250 253 255 259
34 31 39 82 49 46 81 84 89 82 75 79 75 93 94 76 60 34 35 62 75 82 87 94 98 96 103 109 115 117 116 115 117 118 120 123 125 128 130 136 166 228 253 260 262 262 261 260 259 259 259 259 260 261
42 47 53 73 52 43 13 52 58 53 33 40 41 48 58 78 80 39 33 41 53 56 76 89 95 99 103 106 107 110 116 120 127 137 154 182 232 264 273 273 272 271 270 269 270 269 269 267 265 264 264 264 265 267
Height
1402 1402 1402 1401 1401 1400 1401 1402 1404 1407 1411 1417 1425 1433 1443 1452 1460 1467 1473 1479 1486 1488 1485 1486 1485 1484 1480 1478 1484 1490 1500 1501 1504 1507 1507 1516 1520 1527 1529 1531 1533 1535 1544 1550 1558 1556 1542 1521 1528 1526 1517 1514 1512 1513
1390 1390 1389 1388 1388 1388 1389 1390 1393 1396 1400 1407 1415 1424 1434 1444 1453 1462 1470 1474 1483 1487 1482 1482 1483 1483 1481 1481 1485 1485 1487 1491 1494 1502 1509 1512 1517 1524 1522 1528 1530 1529 1525 1529 1531 1525 1515 1516 1514 1515 1515 1514 1514 1515
1378 1377 1376 1376 1376 1377 1380 1383 1387 1391 1395 1401 1408 1417 1427 1437 1447 1456 1465 1471 1480 1484 1482 1478 1471 1476 1478 1479 1483 1483 1486 1486 1489 1491 1494 1499 1503 1510 1516 1516 1520 1522 1521 1522 1523 1508 1511 1512 1512 1513 1515 1515 1515 1516
1365 1364 1364 1365 1366 1369 1373 1378 1383 1387 1392 1397 1404 1413 1422 1432 1443 1453 1457 1465 1475 1481 1483 1472 1468 1467 1471 1475 1477 1478 1482 1485 1488 1490 1490 1493 1496 1500 1504 1503 1507 1511 1516 1517 1517 1507 1507 1504 1503 1506 1510 1512 1515 1516
1352 1351 1352 1354 1357 1362 1367 1373 1378 1384 1390 1395 1402 1409 1418 1428 1439 1450 1455 1461 1468 1477 1475 1469 1468 1465 1467 1468 1470 1476 1480 1483 1487 1491 1491 1491 1492 1497 1503 1505 1505 1503 1503 1507 1503 1495 1497 1496 1495 1497 1503 1508 1512 1515
1338 1339 1341 1344 1349 1355 1362 1368 1375 1380 1387 1394 1400 1408 1416 1425 1436 1444 1452 1460 1466 1473 1478 1474 1465 1459 1459 1463 1468 1474 1480 1484 1488 1485 1484 1486 1487 1492 1494 1497 1488 1488 1489 1489 1488 1491 1493 1494 1494 1493 1495 1502 1508 1512
1324 1327 1331 1336 1342 1349 1356 1362 1370 1378 1385 1392 1399 1407 1415 1424 1432 1438 1444 1449 1463 1475 1479 1478 1466 1458 1458 1461 1466 1470 1473 1477 1481 1481 1481 1483 1487 1489 1490 1487 1482 1482 1484 1486 1486 1490 1491 1491 1492 1492 1493 1498 1505 1510
1311 1316 1321 1327 1334 1341 1348 1357 1365 1374 1383 1391 1399 1408 1416 1425 1433 1440 1446 1450 1460 1471 1476 1475 1464 1457 1455 1457 1462 1466 1469 1475 1477 1476 1476 1480 1486 1487 1485 1472 1475 1477 1479 1480 1479 1481 1482 1486 1489 1490 1491 1496 1501 1505
1298 1304 1310 1317 1324 1332 1341 1350 1360 1370 1381 1389 1399 1409 1418 1421 1427 1433 1447 1453 1460 1467 1466 1466 1461 1452 1453 1454 1458 1465 1467 1473 1473 1472 1475 1477 1476 1475 1465 1465 1468 1470 1472 1471 1473 1475 1477 1480 1484 1486 1488 1491 1495 1500
1285 1291 1297 1305 1313 1322 1332 1343 1355 1367 1378 1388 1399 1402 1405 1409 1423 1437 1452 1455 1460 1460 1459 1457 1456 1451 1451 1450 1459 1466 1465 1470 1470 1468 1469 1469 1461 1458 1456 1458 1460 1462 1465 1466 1468 1469 1470 1473 1476 1479 1482 1486 1489 1494
1271 1276 1282 1289 1299 1308 1318 1330 1344 1360 1373 1376 1387 1394 1401 1408 1424 1435 1440 1446 1450 1453 1449 1445 1449 1448 1448 1448 1454 1457 1461 1463 1464 1457 1461 1455 1450 1439 1448 1449 1452 1455 1457 1457 1460 1463 1466 1467 1469 1474 1478 1482 1486 1490
1256 1259 1264 1272 1280 1289 1300 1312 1328 1344 1354 1361 1374 1390 1399 1408 1417 1423 1430 1435 1434 1432 1431 1433 1437 1444 1449 1448 1448 1455 1456 1463 1452 1453 1457 1443 1428 1428 1433 1434 1438 1442 1445 1448 1449 1455 1461 1463 1465 1468 1474 1478 1482 1487
1239 1240 1245 1251 1261 1274 1288 1301 1316 1333 1341 1363 1380 1387 1388 1394 1400 1404 1407 1405 1405 1404 1411 1418 1430 1437 1447 1446 1446 1449 1451 1453 1450 1452 1439 1422 1413 1415 1418 1421 1424 1427 1431 1434 1438 1444 1452 1457 1460 1463 1467 1473 1479 1483
1222 1222 1225 1231 1239 1255 1274 1292 1309 1317 1336 1350 1361 1373 1373 1378 1372 1367 1362 1378 1390 1397 1403 1411 1419 1427 1439 1442 1444 1442 1443 1444 1442 1440 1420 1410 1403 1405 1406 1408 1412 1415 1420 1425 1428 1434 1440 1446 1452 1457 1462 1466 1472 1477
1211 1208 1209 1216 1231 1246 1268 1286 1299 1318 1329 1339 1348 1356 1358 1351 1356 1361 1370 1382 1389 1397 1404 1414 1420 1424 1432 1438 1439 1441 1442 1428 1416 1408 1404 1393 1394 1394 1395 1400 1404 1409 1414 1419 1422 1425 1429 1438 1445 1452 1457 1461 1466 1472
1209 1204 1204 1212 1232 1251 1269 1287 1304 1317 1325 1331 1334 1341 1344 1348 1355 1358 1364 1376 1384 1392 1405 1410 1414 1420 1418 1420 1427 1419 1411 1406 1398 1394 1382 1382 1383 1384 1389 1396 1401 1406 1410 1414 1418 1422 1426 1433 1441 1447 1452 1457 1462 1467
1218 1215 1222 1233 1247 1266 1281 1293 1308 1317 1321 1326 1330 1332 1337 1342 1346 1351 1357 1365 1376 1386 1394 1397 1403 1401 1405 1407 1410 1395 1396 1386 1376 1370 1372 1375 1379 1383 1388 1395 1399 1403 1408 1412 1416 1419 1426 1433 1438 1443 1448 1453 1459 1464
1232 1239 1245 1254 1264 1276 1288 1300 1307 1312 1316 1319 1324 1330 1334 1336 1340 1347 1351 1359 1366 1375 1385 1383 1383 1386 1384 1381 1388 1383 1380 1376 1370 1370 1372 1374 1379 1385 1390 1394 1398 1403 1407 1412 1415 1420 1426 1432 1437 1442 1446 1451 1455 1460
1246 1253 1261 1268 1275 1283 1295 1305 1307 1314 1318 1320 1322 1328 1333 1334 1336 1340 1347 1352 1356 1362 1373 1373 1370 1364 1368 1369 1370 1370 1368 1368 1368 1371 1373 1376 1381 1385 1389 1395 1399 1403 1407 1410 1414 1420 1427 1432 1437 1441 1446 1450 1454 1458
1261 1267 1274 1280 1287 1291 1297 1307 1311 1314 1319 1322 1320 1327 1328 1327 1331 1335 1342 1352 1359 1368 1369 1365 1358 1354 1354 1356 1358 1357 1359 1361 1367 1373 1375 1377 1381 1385 1391 1396 1399 1404 1407 1411 1416 1421 1426 1431 1436 1441 1446 1450 1453 1457
1272 1279 1285 1291 1293 1295 1303 1308 1313 1316 1317 1317 1317 1318 1321 1326 1330 1335 1342 1348 1355 1358 1361 1357 1353 1352 1351 1350 1351 1352 1355 1357 1362 1363 1364 1372 1381 1387 1393 1397 1401 1404 1406 1410 1415 1420 1426 1431 1435 1440 1444 1449 1452 1456
1276 1284 1290 1297 1299 1303 1308 1308 1313 1315 1314 1310 1311 1315 1319 1324 1330 1335 1340 1344 1347 1349 1349 1349 1349 1344 1345 1347 1349 1351 1355 1360 1365 1367 1371 1376 1380 1388 1393 1397 1399 1403 1407 1412 1416 1419 1424 1429 1434 1439 1443 1447 1450 1454
1287 1293 1297 1301 1305 1307 1311 1310 1312 1311 1310 1311 1313 1314 1321 1325 1328 1333 1339 1343 1345 1346 1348 1349 1345 1347 1347 1349 1350 1352 1357 1362 1365 1369 1376 1382 1388 1392 1396 1399 1402 1406 1409 1413 1416 1420 1424 1428 1433 1438 1442 1446 1449 1452
1297 1301 1306 1307 1310 1310 1309 1307 1308 1305 1304 1307 1311 1318 1323 1326 1330 1334 1340 1342 1343 1344 1346 1346 1349 1351 1350 1352 1353 1354 1357 1363 1367 1373 1380 1383 1387 1392 1397 1402 1405 1408 1413 1414 1417 1420 1424 1428 1432 1436 1441 1446 1449 1451
1300 1310 1311 1312 1311 1312 1310 1305 1305 1303 1307 1311 1314 1320 1322 1326 1332 1337 1339 1342 1345 1348 1349 1352 1355 1357 1355 1354 1356 1358 1361 1365 1368 1372 1379 1384 1387 1392 1397 1402 1406 1410 1412 1415 1418 1421 1424 1427 1431 1435 1440 1444 1447 1449
1308 1313 1314 1310 1309 1311 1308 1305 1306 1308 1311 1312 1315 1319 1321 1321 1329 1334 1338 1341 1344 1347 1350 1354 1357 1357 1358 1358 1358 1359 1363 1368 1373 1376 1380 1386 1391 1394 1398 1402 1406 1409 1411 1415 1419 1422 1424 1427 1430 1434 1437 1441 1444 1446
1309 1309 1310 1310 1309 1308 1308 1307 1307 1306 1304 1306 1312 1313 1316 1323 1332 1338 1339 1341 1345 1350 1353 1355 1358 1359 1357 1359 1361 1364 1368 1371 1375 1379 1383 1388 1392 1396 1401 1404 1406 1409 1411 1414 1417 1422 1425 1428 1430 1432 1434 1437 1440 1442
1310 1312 1312 1312 1310 1307 1304 1301 1302 1306 1306 1306 1307 1315 1323 1332 1340 1340 1341 1343 1344 1348 1354 1357 1359 1362 1363 1364 1366 1369 1371 1374 1378 1382 1386 1390 1394 1397 1401 1404 1406 1408 1411 1414 1418 1421 1424 1426 1428 1430 1432 1433 1435 1437
1309 1312 1312 1311 1311 1310 1313 1315 1313 1311 1313 1311 1316 1327 1336 1341 1345 1344 1344 1343 1346 1351 1356 1358 1361 1364 1365 1367 1370 1374 1377 1381 1383 1385 1388 1391 1395 1399 1401 1402 1405 1407 1411 1415 1417 1421 1423 1423 1424 1425 1428 1429 1431 1431
1307 1305 1308 1314 1315 1318 1319 1318 1316 1315 1315 1315 1319 1331 1338 1345 1348 1346 1344 1346 1350 1354 1357 1360 1363 1366 1368 1372 1374 1377 1380 1382 1384 1387 1389 1392 1395 1398 1400 1402 1405 1408 1412 1414 1416 1418 1419 1420 1421 1422 1424 1425 1426 1427
1309 1307 1309 1315 1323 1324 1322 1320 1320 1320 1321 1325 1330 1332 1334 1343 1347 1351 1352 1356 1358 1360 1361 1362 1364 1366 1370 1373 1377 1380 1382 1385 1388 1390 1392 1394 1396 1398 1401 1403 1405 1407 1410 1412 1414 1414 1416 1416 1417 1419 1420 1420 1421 1422
1312 1314 1316 1318 1327 1329 1327 1327 1328 1329 1332 1333 1338 1340 1342 1345 1357 1365 1368 1367 1367 1366 1367 1368 1369 1372 1375 1378 1381 1383 1385 1387 1389 1391 1393 1394 1395 1397 1399 1401 1403 1405 1407 1408 1409 1410 1411 1412 1413 1414 1414 1414 1414 1414
1322 1323 1326 1326 1333 1335 1336 1334 1337 1341 1344 1347 1350 1352 1356 1363 1376 1382 1381 1377 1375 1374 1372 1373 1376 1380 1382 1383 1383 1385 1388 1389 1391 1392 1394 1395 1395 1397 1399 1400 1401 1402 1402 1403 1404 1405 1405 1405 1405 1405 1405 1406 1406 1406